����,���ϕ���(m/s),���ϕ���,�ő�u�ԕ���(m/s),�ő啗��������,�C��(��),���x(%),10���Ԉړ��ώZ�J��(mm),1���Ԉړ��ώZ�J��(mm),���J��(mm),�݌v�J��(mm),����(���ώZ)(MJ/m2),����(���ώZ)(min),���n�C��(hPa),�C�ʋC��(hPa)
2020-08-24T00:00:00+09:00,1,�k��,1.4,���k��,26.9,81.3,0,0,0,0,16.75,450,994.8,1008
2020-08-24T00:01:00+09:00,1,�k��,1.4,���k��,26.9,80.4,0,0,0,0,0,0,994.8,1008
2020-08-24T00:02:00+09:00,1,�k�k��,1.5,�k�k��,27,79.8,0,0,0,0,0,0,994.8,1008
2020-08-24T00:03:00+09:00,1,�k�k��,1.5,�k�k��,26.8,79.2,0,0,0,0,0,0,994.8,1008
2020-08-24T00:04:00+09:00,0.9,�k�k��,1.5,�k�k��,26.8,79.2,0,0,0,0,0,0,994.8,1008
2020-08-24T00:05:00+09:00,0.8,�k,1.5,�k�k��,26.6,79,0,0,0,0,0,0,994.8,1008
2020-08-24T00:06:00+09:00,0.8,�k,1.5,�k�k��,26.5,79.6,0,0,0,0,0,0,994.8,1008
2020-08-24T00:07:00+09:00,0.7,�k,1.5,�k�k��,26.6,80.1,0,0,0,0,0,0,994.8,1008
2020-08-24T00:08:00+09:00,0.7,�k,1.5,�k�k��,26.6,80.4,0,0,0,0,0,0,994.8,1008
2020-08-24T00:09:00+09:00,0.7,�k,1.5,�k�k��,26.6,80.1,0,0,0,0,0,0,994.8,1008
2020-08-24T00:10:00+09:00,0.7,�k,1.5,�k�k��,26.5,80.1,0,0,0,0,0,0,994.8,1008
2020-08-24T00:11:00+09:00,0.7,�k,1.8,�k�k��,26.6,80.7,0,0,0,0,0,0,994.8,1008
2020-08-24T00:12:00+09:00,0.6,�k�k��,1.8,�k�k��,26.5,80.8,0,0,0,0,0,0,994.8,1008
2020-08-24T00:13:00+09:00,0.5,�k�k��,1.8,�k�k��,26.7,81.1,0,0,0,0,0,0,994.8,1008
2020-08-24T00:14:00+09:00,0.6,�k�k��,1.8,�k�k��,26.7,80.5,0,0,0,0,0,0,994.8,1008
2020-08-24T00:15:00+09:00,0.7,�k�k��,1.8,�k�k��,26.5,80.1,0,0,0,0,0,0,994.8,1008
2020-08-24T00:16:00+09:00,0.7,�k�k��,1.8,�k�k��,26.3,80.6,0,0,0,0,0,0,994.8,1008
2020-08-24T00:17:00+09:00,0.8,�k�k��,1.8,�k�k��,26.1,81.4,0,0,0,0,0,0,994.8,1008
2020-08-24T00:18:00+09:00,0.8,�k�k��,1.8,�k�k��,26.1,82.2,0,0,0,0,0,0,994.8,1008
2020-08-24T00:19:00+09:00,0.9,�k�k��,1.8,�k�k��,26.2,82.6,0,0,0,0,0,0,994.7,1007.9
2020-08-24T00:20:00+09:00,0.9,�k�k��,1.8,�k�k��,26.3,82.6,0,0,0,0,0,0,994.7,1007.9
2020-08-24T00:21:00+09:00,0.9,�k��,1.8,�k��,26.2,82.3,0,0,0,0,0,0,994.8,1008
2020-08-24T00:22:00+09:00,0.9,�k��,1.8,�k��,26.3,82.3,0,0,0,0,0,0,994.7,1007.9
2020-08-24T00:23:00+09:00,1,�k��,1.8,�k��,26.4,82.1,0,0,0,0,0,0,994.7,1007.9
2020-08-24T00:24:00+09:00,1,�k��,1.8,�k��,26.4,82,0,0,0,0,0,0,994.7,1007.9
2020-08-24T00:25:00+09:00,1,�k��,1.6,�k��,26.3,82,0,0,0,0,0,0,994.7,1007.9
2020-08-24T00:26:00+09:00,1,�k��,1.6,�k��,26.3,82.3,0,0,0,0,0,0,994.7,1007.9
2020-08-24T00:27:00+09:00,1,�k��,1.6,�k��,26.2,82.7,0,0,0,0,0,0,994.7,1007.9
2020-08-24T00:28:00+09:00,1,�k��,1.7,���k��,26.3,83.5,0,0,0,0,0,0,994.8,1008
2020-08-24T00:29:00+09:00,1,���k��,1.7,���k��,26.3,83.7,0,0,0,0,0,0,994.7,1007.9
2020-08-24T00:30:00+09:00,1.1,���k��,1.7,���k��,26.3,83.5,0,0,0,0,0,0,994.7,1007.9
2020-08-24T00:31:00+09:00,1.2,���k��,1.9,���k��,26,83.2,0,0,0,0,0,0,994.7,1007.9
2020-08-24T00:32:00+09:00,1.2,���k��,1.9,���k��,25.9,83.9,0,0,0,0,0,0,994.7,1007.9
2020-08-24T00:33:00+09:00,1.2,���k��,1.9,���k��,25.8,84.5,0,0,0,0,0,0,994.7,1007.9
2020-08-24T00:34:00+09:00,1.2,���k��,1.9,���k��,26,84.9,0,0,0,0,0,0,994.7,1007.9
2020-08-24T00:35:00+09:00,1.2,���k��,1.9,���k��,26.1,84.8,0,0,0,0,0,0,994.7,1007.9
2020-08-24T00:36:00+09:00,1.2,���k��,1.9,���k��,26.3,84.5,0,0,0,0,0,0,994.7,1007.9
2020-08-24T00:37:00+09:00,1.2,���k��,1.9,���k��,25.8,83.5,0,0,0,0,0,0,994.7,1007.9
2020-08-24T00:38:00+09:00,1.2,���k��,1.9,���k��,26,85,0,0,0,0,0,0,994.7,1007.9
2020-08-24T00:39:00+09:00,1.2,���k��,1.9,���k��,26,85.2,0,0,0,0,0,0,994.7,1007.9
2020-08-24T00:40:00+09:00,1.3,���k��,1.9,���k��,26,84.9,0,0,0,0,0,0,994.7,1007.9
2020-08-24T00:41:00+09:00,1.2,���k��,1.8,���k��,25.9,84.8,0,0,0,0,0,0,994.7,1007.9
2020-08-24T00:42:00+09:00,1.2,���k��,1.8,���k��,26.1,85.3,0,0,0,0,0,0,994.7,1007.9
2020-08-24T00:43:00+09:00,1.2,���k��,1.8,���k��,26.1,84.9,0,0,0,0,0,0,994.7,1007.9
2020-08-24T00:44:00+09:00,1.2,���k��,1.8,���k��,26.3,84.6,0,0,0,0,0,0,994.7,1007.9
2020-08-24T00:45:00+09:00,1.3,���k��,1.8,���k��,26.3,84.2,0,0,0,0,0,0,994.7,1007.9
2020-08-24T00:46:00+09:00,1.3,���k��,1.8,���k��,26,83.8,0,0,0,0,0,0,994.7,1007.9
2020-08-24T00:47:00+09:00,1.4,���k��,2.1,���k��,25.9,84.3,0,0,0,0,0,0,994.7,1007.9
2020-08-24T00:48:00+09:00,1.4,���k��,2.1,���k��,25.6,84.9,0,0,0,0,0,0,994.7,1008
2020-08-24T00:49:00+09:00,1.4,���k��,2.1,���k��,25.6,86,0,0,0,0,0,0,994.7,1008
2020-08-24T00:50:00+09:00,1.4,���k��,2.1,���k��,25.8,86.5,0,0,0,0,0,0,994.7,1007.9
2020-08-24T00:51:00+09:00,1.3,���k��,2.1,���k��,26,86.4,0,0,0,0,0,0,994.7,1007.9
2020-08-24T00:52:00+09:00,1.3,���k��,2.1,���k��,26.1,85.5,0,0,0,0,0,0,994.7,1007.9
2020-08-24T00:53:00+09:00,1.2,���k��,2.1,���k��,26,85,0,0,0,0,0,0,994.7,1007.9
2020-08-24T00:54:00+09:00,1.1,���k��,2.1,���k��,25.9,84.7,0,0,0,0,0,0,994.7,1007.9
2020-08-24T00:55:00+09:00,0.9,���k��,2.1,���k��,26,85,0,0,0,0,0,0,994.7,1007.9
2020-08-24T00:56:00+09:00,0.8,���k��,2.1,���k��,26.1,85,0,0,0,0,0,0,994.7,1007.9
2020-08-24T00:57:00+09:00,0.6,�k��,2,���k��,26.1,84.5,0,0,0,0,0,0,994.7,1007.9
2020-08-24T00:58:00+09:00,0.5,�k��,1.8,���k��,26.1,84.3,0,0,0,0,0,0,994.7,1007.9
2020-08-24T00:59:00+09:00,0.5,�k��,1.6,�k��,26.2,84.1,0,0,0,0,0,0,994.7,1007.9
2020-08-24T01:00:00+09:00,0.5,�k�k��,1.6,�k��,26.2,83.8,0,0,0,0,0,0,994.7,1007.9
2020-08-24T01:01:00+09:00,0.5,�k,1.6,�k��,26.2,83.6,0,0,0,0,0,0,994.7,1007.9
2020-08-24T01:02:00+09:00,0.5,�k,1.6,�k��,26.4,83.5,0,0,0,0,0,0,994.6,1007.8
2020-08-24T01:03:00+09:00,0.6,�k,1.6,�k��,26.2,82.8,0,0,0,0,0,0,994.7,1007.9
2020-08-24T01:04:00+09:00,0.6,�k�k��,1.6,�k��,26.3,83,0,0,0,0,0,0,994.7,1007.9
2020-08-24T01:05:00+09:00,0.6,�k�k��,1.6,�k��,26.1,82.9,0,0,0,0,0,0,994.7,1007.9
2020-08-24T01:06:00+09:00,0.6,�k��,1.6,�k��,26.2,83.2,0,0,0,0,0,0,994.7,1007.9
2020-08-24T01:07:00+09:00,0.6,�k��,1.6,�k��,26.1,83.4,0,0,0,0,0,0,994.7,1007.9
2020-08-24T01:08:00+09:00,0.6,�k��,1.6,�k��,26.2,83.4,0,0,0,0,0,0,994.7,1007.9
2020-08-24T01:09:00+09:00,0.6,�k��,1.5,���k��,26.1,83.3,0,0,0,0,0,0,994.7,1007.9
2020-08-24T01:10:00+09:00,0.5,�k��,1.5,���k��,26.2,83.7,0,0,0,0,0,0,994.7,1007.9
2020-08-24T01:11:00+09:00,0.6,�k��,1.5,���k��,26.2,83.6,0,0,0,0,0,0,994.7,1007.9
2020-08-24T01:12:00+09:00,0.6,�k��,1.5,���k��,26,83.5,0,0,0,0,0,0,994.7,1007.9
2020-08-24T01:13:00+09:00,0.5,�k��,1.5,���k��,26.2,84,0,0,0,0,0,0,994.7,1007.9
2020-08-24T01:14:00+09:00,0.6,�k��,1.5,���k��,26.2,83.7,0,0,0,0,0,0,994.7,1007.9
2020-08-24T01:15:00+09:00,0.6,�k��,1.5,���k��,26.4,83.5,0,0,0,0,0,0,994.7,1007.9
2020-08-24T01:16:00+09:00,0.6,�k��,1.5,���k��,26.1,82.9,0,0,0,0,0,0,994.7,1007.9
2020-08-24T01:17:00+09:00,0.6,�k��,1.5,���k��,26.1,83.2,0,0,0,0,0,0,994.7,1007.9
2020-08-24T01:18:00+09:00,0.6,�k��,1.5,���k��,26,83.4,0,0,0,0,0,0,994.7,1007.9
2020-08-24T01:19:00+09:00,0.6,�k��,1.5,���k��,26.1,84,0,0,0,0,0,0,994.7,1007.9
2020-08-24T01:20:00+09:00,0.6,�k��,1.4,���k��,26.2,83.9,0,0,0,0,0,0,994.6,1007.8
2020-08-24T01:21:00+09:00,0.5,�k��,1.4,���k��,26.1,83.9,0,0,0,0,0,0,994.6,1007.8
2020-08-24T01:22:00+09:00,0.5,�k��,1.1,�k,25.9,84.1,0,0,0,0,0,0,994.6,1007.8
2020-08-24T01:23:00+09:00,0.5,�k�k��,1.1,�k,26,84.6,0,0,0,0,0,0,994.6,1007.8
2020-08-24T01:24:00+09:00,0.4,�k�k��,1.1,�k,26.2,84.5,0,0,0,0,0,0,994.6,1007.8
2020-08-24T01:25:00+09:00,0.4,�k�k��,1.1,�k,26,84,0,0,0,0,0,0,994.6,1007.8
2020-08-24T01:26:00+09:00,0.4,�k�k��,1.1,�k,25.8,84,0,0,0,0,0,0,994.6,1007.8
2020-08-24T01:27:00+09:00,0.4,�k�k��,1.1,�k,25.8,84.6,0,0,0,0,0,0,994.6,1007.8
2020-08-24T01:28:00+09:00,0.4,�k��,0.9,�k�k��,25.9,85.1,0,0,0,0,0,0,994.6,1007.8
2020-08-24T01:29:00+09:00,0.3,�k��,0.9,�k�k��,25.9,85.1,0,0,0,0,0,0,994.6,1007.8
2020-08-24T01:30:00+09:00,0.3,�k��,0.8,��,25.8,84.8,0,0,0,0,0,0,994.6,1007.8
2020-08-24T01:31:00+09:00,0.3,�k��,0.9,�k,25.8,84.9,0,0,0,0,0,0,994.6,1007.8
2020-08-24T01:32:00+09:00,0.4,�k��,1,�k�k��,25.9,85.4,0,0,0,0,0,0,994.6,1007.8
2020-08-24T01:33:00+09:00,0.4,�k��,1,�k�k��,26,85.4,0,0,0,0,0,0,994.6,1007.8
2020-08-24T01:34:00+09:00,0.4,�k�k��,1.1,�k,26.2,85,0,0,0,0,0,0,994.6,1007.8
2020-08-24T01:35:00+09:00,0.5,�k�k��,1.4,�k�k��,26.3,84.5,0,0,0,0,0,0,994.6,1007.8
2020-08-24T01:36:00+09:00,0.6,�k�k��,1.4,�k�k��,26.3,84.1,0,0,0,0,0,0,994.6,1007.8
2020-08-24T01:37:00+09:00,0.6,�k�k��,1.4,�k�k��,26.3,83.8,0,0,0,0,0,0,994.6,1007.8
2020-08-24T01:38:00+09:00,0.6,�k�k��,1.4,�k�k��,26.2,83.3,0,0,0,0,0,0,994.6,1007.8
2020-08-24T01:39:00+09:00,0.6,�k,1.4,�k�k��,26.2,83.4,0,0,0,0,0,0,994.6,1007.8
2020-08-24T01:40:00+09:00,0.7,�k,1.4,�k�k��,26.1,83.5,0,0,0,0,0,0,994.6,1007.8
2020-08-24T01:41:00+09:00,0.7,�k�k��,1.4,�k�k��,26.1,83.8,0,0,0,0,0,0,994.6,1007.8
2020-08-24T01:42:00+09:00,0.7,�k�k��,1.4,�k�k��,26.2,84,0,0,0,0,0,0,994.6,1007.8
2020-08-24T01:43:00+09:00,0.7,�k��,1.4,�k�k��,26.1,83.7,0,0,0,0,0,0,994.5,1007.7
2020-08-24T01:44:00+09:00,0.7,�k��,1.4,�k�k��,26,83.7,0,0,0,0,0,0,994.5,1007.7
2020-08-24T01:45:00+09:00,0.7,�k��,1.3,�k,25.9,84.1,0,0,0,0,0,0,994.6,1007.8
2020-08-24T01:46:00+09:00,0.7,���k��,1.2,���k��,25.8,84.4,0,0,0,0,0,0,994.6,1007.8
2020-08-24T01:47:00+09:00,0.8,���k��,1.3,��,25.8,84.7,0,0,0,0,0,0,994.6,1007.8
2020-08-24T01:48:00+09:00,0.8,���k��,1.3,��,25.6,84.9,0,0,0,0,0,0,994.6,1007.9
2020-08-24T01:49:00+09:00,0.8,���k��,1.3,��,25.1,84.8,0,0,0,0,0,0,994.6,1007.9
2020-08-24T01:50:00+09:00,0.9,��,1.4,��,25.2,86.8,0,0,0,0,0,0,994.6,1007.9
2020-08-24T01:51:00+09:00,0.9,��,1.5,���k��,25.5,88.2,0,0,0,0,0,0,994.7,1008
2020-08-24T01:52:00+09:00,1,��,1.5,���k��,25.8,87.8,0,0,0,0,0,0,994.7,1007.9
2020-08-24T01:53:00+09:00,1,��,1.5,���k��,25.8,86.6,0,0,0,0,0,0,994.7,1007.9
2020-08-24T01:54:00+09:00,1,��,1.5,���k��,25.9,86.2,0,0,0,0,0,0,994.7,1007.9
2020-08-24T01:55:00+09:00,1.1,��,1.6,���k��,26,85.6,0,0,0,0,0,0,994.7,1007.9
2020-08-24T01:56:00+09:00,1.1,��,1.6,���k��,26,85.3,0,0,0,0,0,0,994.7,1007.9
2020-08-24T01:57:00+09:00,1.1,��,1.6,���k��,25.8,84.7,0,0,0,0,0,0,994.7,1007.9
2020-08-24T01:58:00+09:00,1.1,���k��,1.6,���k��,26.1,84.9,0,0,0,0,0,0,994.7,1007.9
2020-08-24T01:59:00+09:00,1.2,���k��,1.6,���k��,26,84.4,0,0,0,0,0,0,994.7,1007.9
2020-08-24T02:00:00+09:00,1.2,���k��,1.6,���k��,25.9,84.1,0,0,0,0,0,0,994.7,1007.9
2020-08-24T02:01:00+09:00,1.1,���k��,1.6,���k��,25.9,84.3,0,0,0,0,0,0,994.7,1007.9
2020-08-24T02:02:00+09:00,1.1,���k��,1.6,���k��,25.9,84.5,0,0,0,0,0,0,994.7,1007.9
2020-08-24T02:03:00+09:00,1.1,���k��,1.6,���k��,25.8,84.6,0,0,0,0,0,0,994.7,1007.9
2020-08-24T02:04:00+09:00,1.1,���k��,1.6,���k��,25.8,84.6,0,0,0,0,0,0,994.7,1007.9
2020-08-24T02:05:00+09:00,1.1,���k��,1.6,���k��,25.8,84.8,0,0,0,0,0,0,994.7,1007.9
2020-08-24T02:06:00+09:00,1,���k��,1.6,���k��,25.7,84.8,0,0,0,0,0,0,994.7,1008
2020-08-24T02:07:00+09:00,1,���k��,1.6,���k��,25.8,85.1,0,0,0,0,0,0,994.7,1007.9
2020-08-24T02:08:00+09:00,1,��,1.6,���k��,25.7,84.8,0,0,0,0,0,0,994.7,1008
2020-08-24T02:09:00+09:00,1,��,1.6,���k��,25.6,85.2,0,0,0,0,0,0,994.8,1008.1
2020-08-24T02:10:00+09:00,1,��,1.6,���k��,25.9,86,0,0,0,0,0,0,994.8,1008
2020-08-24T02:11:00+09:00,1,��,1.6,���k��,25.8,85.3,0,0,0,0,0,0,994.8,1008
2020-08-24T02:12:00+09:00,1,��,1.6,���k��,25.7,84.8,0,0,0,0,0,0,994.7,1008
2020-08-24T02:13:00+09:00,1.1,��,1.6,��,25.5,85,0,0,0,0,0,0,994.8,1008.1
2020-08-24T02:14:00+09:00,1.1,��,1.8,���k��,25.4,85.3,0,0,0,0,0,0,994.8,1008.1
2020-08-24T02:15:00+09:00,1.2,��,1.9,���k��,25.4,86.1,0,0,0,0,0,0,994.7,1008
2020-08-24T02:16:00+09:00,1.3,��,2.3,��,25.3,86.7,0,0,0,0,0,0,994.7,1008
2020-08-24T02:17:00+09:00,1.4,��,2.4,��,25,86.9,0,0,0,0,0,0,994.7,1008
2020-08-24T02:18:00+09:00,1.5,���k��,2.4,��,24.8,87.7,0,0,0,0,0,0,994.7,1008
2020-08-24T02:19:00+09:00,1.6,���k��,2.4,��,24.9,88.8,0,0,0,0,0,0,994.7,1008
2020-08-24T02:20:00+09:00,1.7,���k��,2.4,��,24.7,89.1,0,0,0,0,0,0,994.7,1008
2020-08-24T02:21:00+09:00,1.8,���k��,2.4,��,24.6,89.5,0,0,0,0,0,0,994.7,1008
2020-08-24T02:22:00+09:00,1.9,��,2.4,��,25,90.9,0,0,0,0,0,0,994.7,1008
2020-08-24T02:23:00+09:00,1.9,��,2.4,��,24.9,90.3,0,0,0,0,0,0,994.7,1008
2020-08-24T02:24:00+09:00,1.8,��,2.4,��,25.3,90.3,0,0,0,0,0,0,994.7,1008
2020-08-24T02:25:00+09:00,1.7,��,2.4,��,25.5,89.3,0,0,0,0,0,0,994.7,1008
2020-08-24T02:26:00+09:00,1.6,���k��,2.4,��,25.5,88,0,0,0,0,0,0,994.7,1008
2020-08-24T02:27:00+09:00,1.5,���k��,2.3,���k��,25.4,87.2,0,0,0,0,0,0,994.7,1008
2020-08-24T02:28:00+09:00,1.4,���k��,2.2,��,25.6,87.2,0,0,0,0,0,0,994.7,1008
2020-08-24T02:29:00+09:00,1.4,���k��,2.2,��,25.6,86.8,0,0,0,0,0,0,994.8,1008.1
2020-08-24T02:30:00+09:00,1.3,���k��,2.1,���k��,25.6,86.4,0,0,0,0,0,0,994.8,1008.1
2020-08-24T02:31:00+09:00,1.1,���k��,2,��,25.7,86.2,0,0,0,0,0,0,994.8,1008.1
2020-08-24T02:32:00+09:00,1,���k��,1.7,��,25.5,85.8,0,0,0,0,0,0,994.8,1008.1
2020-08-24T02:33:00+09:00,0.9,���k��,1.7,��,25.5,86.2,0,0,0,0,0,0,994.8,1008.1
2020-08-24T02:34:00+09:00,0.8,�k��,1.7,��,25.7,86.4,0,0,0,0,0,0,994.8,1008.1
2020-08-24T02:35:00+09:00,0.8,�k��,1.7,��,25.8,86.1,0,0,0,0,0,0,994.8,1008
2020-08-24T02:36:00+09:00,0.8,�k��,1.7,��,25.8,85.7,0,0,0,0,0,0,994.8,1008
2020-08-24T02:37:00+09:00,0.8,�k�k��,1.7,��,26,85.7,0,0,0,0,0,0,994.8,1008
2020-08-24T02:38:00+09:00,0.8,�k�k��,1.7,��,26,85.1,0,0,0,0,0,0,994.8,1008
2020-08-24T02:39:00+09:00,0.7,�k,1.7,��,26.1,84.8,0,0,0,0,0,0,994.7,1007.9
2020-08-24T02:40:00+09:00,0.7,�k,1.5,�k,26.1,84.4,0,0,0,0,0,0,994.7,1007.9
2020-08-24T02:41:00+09:00,0.8,�k�k��,1.6,�k�k��,26.1,84.1,0,0,0,0,0,0,994.7,1007.9
2020-08-24T02:42:00+09:00,1,�k�k��,1.6,�k�k��,26.2,83.9,0,0,0,0,0,0,994.7,1007.9
2020-08-24T02:43:00+09:00,1,�k�k��,1.6,�k�k��,26.2,83.6,0,0,0,0,0,0,994.7,1007.9
2020-08-24T02:44:00+09:00,1,�k�k��,1.6,�k�k��,25.8,83.2,0,0,0,0,0,0,994.7,1007.9
2020-08-24T02:45:00+09:00,1.1,�k�k��,1.6,�k�k��,25.9,83.9,0,0,0,0,0,0,994.7,1007.9
2020-08-24T02:46:00+09:00,1.1,�k�k��,1.7,�k,26.1,84.1,0,0,0,0,0,0,994.7,1007.9
2020-08-24T02:47:00+09:00,1.1,�k�k��,1.7,�k,26,83.9,0,0,0,0,0,0,994.6,1007.8
2020-08-24T02:48:00+09:00,1,�k�k��,1.7,�k,26,84,0,0,0,0,0,0,994.6,1007.8
2020-08-24T02:49:00+09:00,1,�k�k��,1.7,�k,25.9,83.8,0,0,0,0,0,0,994.6,1007.8
2020-08-24T02:50:00+09:00,1,�k�k��,1.7,�k,25.9,84,0,0,0,0,0,0,994.7,1007.9
2020-08-24T02:51:00+09:00,0.9,�k�k��,1.7,�k,25.9,84.1,0,0,0,0,0,0,994.7,1007.9
2020-08-24T02:52:00+09:00,0.8,�k�k��,1.7,�k,25.9,84.1,0,0,0,0,0,0,994.7,1007.9
2020-08-24T02:53:00+09:00,0.8,�k�k��,1.7,�k,25.8,84.3,0,0,0,0,0,0,994.7,1007.9
2020-08-24T02:54:00+09:00,0.8,�k�k��,1.7,�k,25.9,84.5,0,0,0,0,0,0,994.7,1007.9
2020-08-24T02:55:00+09:00,0.8,�k�k��,1.7,�k,25.9,84.2,0,0,0,0,0,0,994.7,1007.9
2020-08-24T02:56:00+09:00,0.8,�k�k��,1.3,�k�k��,25.9,84,0,0,0,0,0,0,994.7,1007.9
2020-08-24T02:57:00+09:00,0.7,�k�k��,1.3,�k�k��,26.1,84.2,0,0,0,0,0,0,994.7,1007.9
2020-08-24T02:58:00+09:00,0.7,�k,1.3,�k�k��,25.9,83.8,0,0,0,0,0,0,994.7,1007.9
2020-08-24T02:59:00+09:00,0.7,�k,1.3,�k�k��,25.7,83.7,0,0,0,0,0,0,994.7,1008
2020-08-24T03:00:00+09:00,0.7,�k,1.3,�k�k��,25.6,84.3,0,0,0,0,0,0,994.8,1008.1
2020-08-24T03:01:00+09:00,0.7,�k�k��,1.3,�k�k��,25.6,84.8,0,0,0,0,0,0,994.8,1008.1
2020-08-24T03:02:00+09:00,0.7,�k�k��,1.3,�k�k��,25.5,85.2,0,0,0,0,0,0,994.8,1008.1
2020-08-24T03:03:00+09:00,0.7,�k��,1.3,�k�k��,25.8,85.9,0,0,0,0,0,0,994.8,1008
2020-08-24T03:04:00+09:00,0.6,�k��,1.2,���k��,25.8,85.3,0,0,0,0,0,0,994.8,1008
2020-08-24T03:05:00+09:00,0.6,�k��,1.2,���k��,25.9,84.9,0,0,0,0,0,0,994.8,1008
2020-08-24T03:06:00+09:00,0.5,�k��,1.2,���k��,25.9,84.7,0,0,0,0,0,0,994.8,1008
2020-08-24T03:07:00+09:00,0.6,�k�k��,1.2,���k��,26,84.5,0,0,0,0,0,0,994.7,1007.9
2020-08-24T03:08:00+09:00,0.6,�k�k��,1.2,���k��,25.8,83.9,0,0,0,0,0,0,994.7,1007.9
2020-08-24T03:09:00+09:00,0.6,�k,1.2,���k��,25.9,84.5,0,0,0,0,0,0,994.7,1007.9
2020-08-24T03:10:00+09:00,0.6,�k,1.2,���k��,25.9,84.3,0,0,0,0,0,0,994.7,1007.9
2020-08-24T03:11:00+09:00,0.6,�k�k��,1.1,�k�k��,25.7,84,0,0,0,0,0,0,994.7,1008
2020-08-24T03:12:00+09:00,0.5,�k�k��,1.1,�k�k��,25.7,84.5,0,0,0,0,0,0,994.6,1007.9
2020-08-24T03:13:00+09:00,0.5,�k��,1.1,�k�k��,25.6,84.8,0,0,0,0,0,0,994.6,1007.9
2020-08-24T03:14:00+09:00,0.5,�k��,1.1,�k�k��,25.9,85.2,0,0,0,0,0,0,994.6,1007.8
2020-08-24T03:15:00+09:00,0.5,�k�k��,1,�k��,25.9,84.7,0,0,0,0,0,0,994.7,1007.9
2020-08-24T03:16:00+09:00,0.5,�k�k��,1,�k��,25.9,84.3,0,0,0,0,0,0,994.6,1007.8
2020-08-24T03:17:00+09:00,0.4,�k�k��,1,�k��,25.7,83.9,0,0,0,0,0,0,994.6,1007.9
2020-08-24T03:18:00+09:00,0.4,�k,1,�k��,25.6,84.3,0,0,0,0,0,0,994.6,1007.9
2020-08-24T03:19:00+09:00,0.4,�k,1,�k��,25.4,84.8,0,0,0,0,0,0,994.6,1007.9
2020-08-24T03:20:00+09:00,0.4,�k,1,�k��,25.4,85.7,0,0,0,0,0,0,994.6,1007.9
2020-08-24T03:21:00+09:00,0.4,�k,1,�k��,25.5,86.4,0,0,0,0,0,0,994.7,1008
2020-08-24T03:22:00+09:00,0.3,�k,0.9,�k��,25.6,86.2,0,0,0,0,0,0,994.7,1008
2020-08-24T03:23:00+09:00,0.3,�k�k��,0.8,��,25.7,86,0,0,0,0,0,0,994.7,1008
2020-08-24T03:24:00+09:00,0.4,�k�k��,1.2,���k��,25.7,85.7,0,0,0,0,0,0,994.7,1008
2020-08-24T03:25:00+09:00,0.5,�k�k��,1.4,���k��,25.5,85.2,0,0,0,0,0,0,994.7,1008
2020-08-24T03:26:00+09:00,0.6,�k��,1.4,���k��,25,85.2,0,0,0,0,0,0,994.7,1008
2020-08-24T03:27:00+09:00,0.7,�k��,1.8,��,25.2,86.6,0,0,0,0,0,0,994.7,1008
2020-08-24T03:28:00+09:00,0.8,�k��,1.8,��,24.8,86.8,0,0,0,0,0,0,994.7,1008
2020-08-24T03:29:00+09:00,0.9,���k��,1.8,��,24.4,87.3,0,0,0,0,0,0,994.7,1008
2020-08-24T03:30:00+09:00,1,���k��,1.8,��,24.3,88.8,0,0,0,0,0,0,994.7,1008
2020-08-24T03:31:00+09:00,1.1,���k��,1.8,��,24.7,90.9,0,0,0,0,0,0,994.6,1007.9
2020-08-24T03:32:00+09:00,1.1,��,1.8,��,25,91.7,0,0,0,0,0,0,994.7,1008
2020-08-24T03:33:00+09:00,1.1,��,1.8,��,25,90.1,0,0,0,0,0,0,994.6,1007.9
2020-08-24T03:34:00+09:00,1,��,1.8,��,25,89.4,0,0,0,0,0,0,994.6,1007.9
2020-08-24T03:35:00+09:00,1,��,1.8,��,25.1,89,0,0,0,0,0,0,994.6,1007.9
2020-08-24T03:36:00+09:00,0.9,��,1.8,��,25.3,88.8,0,0,0,0,0,0,994.6,1007.9
2020-08-24T03:37:00+09:00,0.9,���k��,1.8,���쐼,25.3,88.2,0,0,0,0,0,0,994.6,1007.9
2020-08-24T03:38:00+09:00,0.8,���k��,1.8,���쐼,25.2,87.4,0,0,0,0,0,0,994.6,1007.9
2020-08-24T03:39:00+09:00,0.7,���k��,1.7,���k��,25.1,87.3,0,0,0,0,0,0,994.6,1007.9
2020-08-24T03:40:00+09:00,0.6,���k��,1.5,���k��,25.2,87.4,0,0,0,0,0,0,994.6,1007.9
2020-08-24T03:41:00+09:00,0.6,���k��,1.1,��,25.2,87.3,0,0,0,0,0,0,994.6,1007.9
2020-08-24T03:42:00+09:00,0.6,��,1.1,��,25.1,87.3,0,0,0,0,0,0,994.6,1007.9
2020-08-24T03:43:00+09:00,0.6,��,1.1,��,25.2,87.5,0,0,0,0,0,0,994.6,1007.9
2020-08-24T03:44:00+09:00,0.6,��,1.1,��,25.2,87.3,0,0,0,0,0,0,994.5,1007.8
2020-08-24T03:45:00+09:00,0.6,���k��,1.1,��,25.1,87.1,0,0,0,0,0,0,994.5,1007.8
2020-08-24T03:46:00+09:00,0.5,���k��,1.1,��,25.1,87.4,0,0,0,0,0,0,994.5,1007.8
2020-08-24T03:47:00+09:00,0.5,���k��,1.1,��,25.2,87.7,0,0,0,0,0,0,994.5,1007.8
2020-08-24T03:48:00+09:00,0.4,���k��,1.1,��,25.4,87.6,0,0,0,0,0,0,994.5,1007.8
2020-08-24T03:49:00+09:00,0.4,�k��,1.1,��,25.4,87.4,0,0,0,0,0,0,994.5,1007.8
2020-08-24T03:50:00+09:00,0.4,�k��,1.1,��,25.4,87,0,0,0,0,0,0,994.5,1007.8
2020-08-24T03:51:00+09:00,0.3,�k�k��,0.9,�k,25.3,86.5,0,0,0,0,0,0,994.5,1007.8
2020-08-24T03:52:00+09:00,0.3,�k�k��,1.3,�k�k��,25.3,86.8,0,0,0,0,0,0,994.5,1007.8
2020-08-24T03:53:00+09:00,0.3,�k,1.3,�k�k��,25.4,87.2,0,0,0,0,0,0,994.5,1007.8
2020-08-24T03:54:00+09:00,0.3,�k,1.3,�k�k��,25.5,87.1,0,0,0,0,0,0,994.5,1007.8
2020-08-24T03:55:00+09:00,0.3,�k,1.3,�k�k��,25.6,86.9,0,0,0,0,0,0,994.5,1007.8
2020-08-24T03:56:00+09:00,0.4,�k,1.3,�k�k��,25.4,86,0,0,0,0,0,0,994.5,1007.8
2020-08-24T03:57:00+09:00,0.4,�k,1.3,�k�k��,25.5,86,0,0,0,0,0,0,994.5,1007.8
2020-08-24T03:58:00+09:00,0.5,�k,1.3,�k�k��,25.3,85.9,0,0,0,0,0,0,994.5,1007.8
2020-08-24T03:59:00+09:00,0.5,�k�k��,1.3,�k�k��,25.5,86.2,0,0,0,0,0,0,994.5,1007.8
2020-08-24T04:00:00+09:00,0.5,�k�k��,1.3,�k�k��,25.6,86.2,0,0,0,0,0,0,994.5,1007.8
2020-08-24T04:01:00+09:00,0.5,�k�k��,1.3,�k�k��,25.6,85.7,0,0,0,0,0,0,994.6,1007.9
2020-08-24T04:02:00+09:00,0.5,�k�k��,1.2,�k�k��,25.6,85.7,0,0,0,0,0,0,994.6,1007.9
2020-08-24T04:03:00+09:00,0.5,�k�k��,1.2,�k�k��,25.6,85.7,0,0,0,0,0,0,994.6,1007.9
2020-08-24T04:04:00+09:00,0.6,�k�k��,1.3,���k��,25.2,85.3,0,0,0,0,0,0,994.6,1007.9
2020-08-24T04:05:00+09:00,0.6,�k,1.3,���k��,25.4,86,0,0,0,0,0,0,994.6,1007.9
2020-08-24T04:06:00+09:00,0.7,�k,1.7,���k��,25.4,86.6,0,0,0,0,0,0,994.7,1008
2020-08-24T04:07:00+09:00,0.8,�k,1.7,���k��,25.3,86.1,0,0,0,0,0,0,994.7,1008
2020-08-24T04:08:00+09:00,0.8,�k�k��,1.7,���k��,25,86.3,0,0,0,0,0,0,994.7,1008
2020-08-24T04:09:00+09:00,0.8,�k�k��,1.7,���k��,25,87,0,0,0,0,0,0,994.7,1008
2020-08-24T04:10:00+09:00,0.8,�k�k��,1.7,���k��,25.2,87.7,0,0,0,0,0,0,994.7,1008
2020-08-24T04:11:00+09:00,0.8,�k��,1.7,���k��,25.3,87.6,0,0,0,0,0,0,994.7,1008
2020-08-24T04:12:00+09:00,0.8,�k��,1.7,���k��,25.4,87.3,0,0,0,0,0,0,994.7,1008
2020-08-24T04:13:00+09:00,0.8,�k��,1.7,���k��,25.4,87,0,0,0,0,0,0,994.7,1008
2020-08-24T04:14:00+09:00,0.8,�k��,1.7,���k��,25.3,86.7,0,0,0,0,0,0,994.7,1008
2020-08-24T04:15:00+09:00,0.7,�k��,1.7,���k��,25.4,86.8,0,0,0,0,0,0,994.7,1008
2020-08-24T04:16:00+09:00,0.7,�k�k��,1.4,�k��,25.4,86.7,0,0,0,0,0,0,994.7,1008
2020-08-24T04:17:00+09:00,0.6,�k�k��,1.4,�k��,25.5,86.7,0,0,0,0,0,0,994.7,1008
2020-08-24T04:18:00+09:00,0.6,�k�k��,1.1,�k�k��,25.4,86.4,0,0,0,0,0,0,994.7,1008
2020-08-24T04:19:00+09:00,0.6,�k,1.1,�k�k��,25.3,86.4,0,0,0,0,0,0,994.7,1008
2020-08-24T04:20:00+09:00,0.6,�k,1.1,�k�k��,25.4,86.6,0,0,0,0,0,0,994.7,1008
2020-08-24T04:21:00+09:00,0.6,�k�k��,1.1,�k�k��,25.3,86.2,0,0,0,0,0,0,994.7,1008
2020-08-24T04:22:00+09:00,0.6,�k,1.1,�k�k��,25.3,86.4,0,0,0,0,0,0,994.7,1008
2020-08-24T04:23:00+09:00,0.6,�k,1.1,�k�k��,25.4,86.7,0,0,0,0,0,0,994.6,1007.9
2020-08-24T04:24:00+09:00,0.6,�k,1.1,�k�k��,25.3,86.4,0,0,0,0,0,0,994.6,1007.9
2020-08-24T04:25:00+09:00,0.5,�k,1.1,�k�k��,25.3,86.1,0,0,0,0,0,0,994.6,1007.9
2020-08-24T04:26:00+09:00,0.4,�k�k��,1.1,�k�k��,25.1,86.1,0,0,0,0,0,0,994.6,1007.9
2020-08-24T04:27:00+09:00,0.4,�k�k��,1.1,�k�k��,25.1,86.6,0,0,0,0,0,0,994.6,1007.9
2020-08-24T04:28:00+09:00,0.3,�k�k��,0.9,�k,25.2,87.2,0,0,0,0,0,0,994.6,1007.9
2020-08-24T04:29:00+09:00,0.3,�k�k��,0.9,�k��,25.2,87.1,0,0,0,0,0,0,994.6,1007.9
2020-08-24T04:30:00+09:00,0.3,�k��,0.9,�k��,25.2,87.2,0,0,0,0,0,0,994.6,1007.9
2020-08-24T04:31:00+09:00,0.3,�k��,1,�k�k��,25.1,87,0,0,0,0,0,0,994.6,1007.9
2020-08-24T04:32:00+09:00,0.4,�k��,1.1,�k�k��,25.1,87.4,0,0,0,0,0,0,994.6,1007.9
2020-08-24T04:33:00+09:00,0.4,�k��,1.1,�k�k��,25.1,87.7,0,0,0,0,0,0,994.6,1007.9
2020-08-24T04:34:00+09:00,0.4,�k�k��,1.1,�k�k��,25.2,87.9,0,0,0,0,0,0,994.6,1007.9
2020-08-24T04:35:00+09:00,0.4,�k�k��,1.1,�k�k��,25.4,87.7,0,0,0,0,0,0,994.6,1007.9
2020-08-24T04:36:00+09:00,0.4,�k�k��,1.1,�k�k��,25.4,87.1,0,0,0,0,0,0,994.5,1007.8
2020-08-24T04:37:00+09:00,0.5,�k,1.2,�k��,25.4,86.8,0,0,0,0,0,0,994.5,1007.8
2020-08-24T04:38:00+09:00,0.6,�k,1.3,��,25.4,86.5,0,0,0,0,0,0,994.5,1007.8
2020-08-24T04:39:00+09:00,0.6,�k�k��,1.3,��,25.5,86.3,0,0,0,0,0,0,994.4,1007.7
2020-08-24T04:40:00+09:00,0.7,�k�k��,1.3,��,25.3,85.9,0,0,0,0,0,0,994.4,1007.7
2020-08-24T04:41:00+09:00,0.7,�k��,1.5,���k��,25.2,86.2,0,0,0,0,0,0,994.5,1007.8
2020-08-24T04:42:00+09:00,0.8,�k��,1.5,���k��,25,86.4,0,0,0,0,0,0,994.4,1007.7
2020-08-24T04:43:00+09:00,0.8,�k��,1.5,���k��,25,87,0,0,0,0,0,0,994.4,1007.7
2020-08-24T04:44:00+09:00,0.9,���k��,1.5,���k��,25.1,87.5,0,0,0,0,0,0,994.4,1007.7
2020-08-24T04:45:00+09:00,1,���k��,1.5,���k��,25.2,87.6,0,0,0,0,0,0,994.4,1007.7
2020-08-24T04:46:00+09:00,1,���k��,1.5,���k��,25.1,87.2,0,0,0,0,0,0,994.4,1007.7
2020-08-24T04:47:00+09:00,1,���k��,1.5,���k��,25,87.2,0,0,0,0,0,0,994.3,1007.6
2020-08-24T04:48:00+09:00,1,���k��,1.5,���k��,25.1,87.6,0,0,0,0,0,0,994.3,1007.6
2020-08-24T04:49:00+09:00,1,���k��,1.5,���k��,25,87.5,0,0,0,0,0,0,994.3,1007.6
2020-08-24T04:50:00+09:00,1,���k��,1.5,���k��,25,87.8,0,0,0,0,0,0,994.4,1007.7
2020-08-24T04:51:00+09:00,1,���k��,1.5,���k��,25,88,0,0,0,0,0,0,994.4,1007.7
2020-08-24T04:52:00+09:00,1,���k��,1.5,���k��,25.2,88.2,0,0,0,0,0,0,994.4,1007.7
2020-08-24T04:53:00+09:00,0.9,���k��,1.5,���k��,24.9,87.6,0,0,0,0,0,0,994.4,1007.7
2020-08-24T04:54:00+09:00,0.9,���k��,1.5,���k��,25,87.7,0,0,0,0,0,0,994.3,1007.6
2020-08-24T04:55:00+09:00,0.9,���k��,1.5,���k��,25.3,88.3,0,0,0,0,0,0,994.3,1007.6
2020-08-24T04:56:00+09:00,0.9,���k��,1.5,���k��,25.1,87.5,0,0,0,0,0,0,994.3,1007.6
2020-08-24T04:57:00+09:00,0.9,���k��,1.5,���k��,25,87.2,0,0,0,0,0,0,994.3,1007.6
2020-08-24T04:58:00+09:00,0.8,���k��,1.5,���k��,24.9,87.6,0,0,0,0,0,0,994.3,1007.6
2020-08-24T04:59:00+09:00,0.8,���k��,1.5,���k��,24.9,87.9,0,0,0,0,0,0,994.3,1007.6
2020-08-24T05:00:00+09:00,0.7,���k��,1.5,���k��,25,88.3,0,0,0,0,0,0,994.3,1007.6